Home   Weather   Bystrc   Past weeks
Flag for Czech Republic

Past Weather in Bystrc, Czech Republic — Yesterday and Last 2 Weeks

Now
72 °F

Passing clouds.


Feels Like: 76 °F
Forecast: 82 / 64 °F
Wind: 2 mph from East

Location: Brno / Turany

Current Time: Jul 21, 2019 at 12:25:32 am

Latest Report: Jul 20, 2019 at 11:00 pm


Visibility: 19 mi

Pressure: 29.97 "Hg

Humidity: 61%

Dew Point: 57 °F

Location of BystrcLocation

Past Weather in Bystrc — Graph

°F

Bystrc Temperature Yesterday

Maximum temperature yesterday: 87 °F (at 6:00 pm)
Minimum temperature yesterday: 61 °F (at 6:00 am)
Average temperature yesterday: 74 °F

High & Low Weather Summary for the Past Weeks

 TemperatureHumidityPressure
High90 °F (Jul 6, 4:00 pm)99% (Jul 13, 4:00 am)30.03 "Hg (Jul 13, 4:00 am)
Low48 °F (Jul 11, 5:00 am)19% (Jul 6, 6:00 pm)29.67 "Hg (Jul 6, 9:00 pm)
Average66 °F60%29.92 "Hg
* Reported Jul 5 11:00 pm — Jul 20 11:00 pm, Bystrc. Weather by CustomWeather, © 2019

Note: Actual official high and low records may vary slightly from our data, if they occured in-between our weather recording intervals... More about our weather records

Advertising

Bystrc Weather History for the Previous 24 Hours

Scroll right to see more
 ConditionsComfort  
Time TempWeatherWind HumidityBarometerVisibility
11:00 pm
Sat, Jul 20
72 °FPassing clouds.2 mph61%29.97 "Hg19 mi
10:00 pm78 °FPassing clouds.3 mph48%29.95 "Hg19 mi
9:00 pm80 °FPassing clouds.2 mph44%29.94 "Hg19 mi
8:00 pm82 °FPartly sunny.2 mph41%29.94 "Hg19 mi
7:00 pm85 °FPartly sunny.2 mph38%29.93 "Hg19 mi
6:00 pm87 °FPartly sunny.2 mph33%29.93 "Hg22 mi
5:00 pm87 °FPartly sunny.3 mph35%29.94 "Hg22 mi
4:00 pm86 °FPartly sunny.3 mph35%29.95 "Hg22 mi
3:00 pm86 °FPartly sunny.3 mph39%29.96 "Hg22 mi
2:00 pm83 °FPartly sunny.2 mph41%29.97 "Hg22 mi
1:00 pm81 °FOvercast.5 mph46%29.99 "Hg22 mi
12:00 pm80 °FOvercast.3 mph49%30.00 "Hg22 mi
11:00 am77 °FOvercast.2 mph54%30.01 "Hg19 mi
10:00 am75 °FOvercast.3 mph59%30.01 "Hg19 mi
9:00 am72 °FOvercast.3 mph64%30.02 "Hg16 mi
8:00 am68 °FOvercast.3 mph75%30.02 "Hg16 mi
7:00 am63 °FOvercast.3 mph85%30.02 "Hg16 mi
6:00 am61 °FPartly sunny.2 mph85%30.03 "Hg19 mi
5:00 am62 °FPassing clouds.3 mph85%30.02 "Hg19 mi
4:00 am63 °FPassing clouds.1 mph83%30.02 "Hg22 mi
3:00 am65 °FOvercast.2 mph79%30.01 "Hg22 mi
2:00 am65 °FOvercast.1 mph82%30.01 "Hg22 mi
1:00 am64 °FOvercast.1 mph82%30.03 "Hg22 mi
12:00 am66 °FOvercast.2 mph76%30.02 "Hg22 mi
Weather by CustomWeather, © 2019

See weather overview